Participated 2 times
Between 1953 and 1954
René Desmet, Belgium
Tour de France 2026 starts from Barcelona, Spain in

Stats and Facts from
Tour de France.

2026   2025   2024   2023  2022  2021  2020  2019   2018  2017   2016   2015  2014  2013   2012   2011  2010   2009   2008   2007   2006   2005   2004   2003   2002   2001   2000   1999   1998   1997  1996   1995   1994   1993   1992  1991   1990   1989   1988   1987   1986   1985   1984   1983  1982  1981   1980   1979  1978  1977   1976  1975  1974  1973   1972   1971   1970  1969   1968   1967   1966   1965  1964  1963   1962   1961   1960   1959   1958   1957  1956   1955   1954   1953   1952  1951  1950  1949   1948  1947  1939   1938   1937   1936   1935   1934   1933  1932   1931   1930  1929   1928   1927   1926  1925  1924  1923   1922   1921   1920   1919  1914   1913   1912   1911   1910  1909   1908   1907   1906  1905  1904   1903 

Tourstats
Sitemap

After stage 21 - 2025:
 16451 starters.
  5464 different riders.
  689 teams.
  2398 stages.
  470 restdays.
  466506.50 km.
  5925 abandoned riders.

Click map for 2012 route.
Facts from Tour de France 2012
  |   Stages.  |   Stage winners.  |   Days in jerseys.  |   Teams.  |   All riders.  |   All riders by age.  |   All riders from.  |  

  |   Rookies.  |   Withdrawls.  |   Average speed.  |   GC.  |   Polka  |   Green  |   White  |   Summits. (In tour)  |   Miscellaneous.  |  

Stage 9 on July 9th. 2012
Pick a stage:  Pro  1  2  3  4  5  6  7  8  9  10  11  12  13  14  15  16  17  18  19  20  

After stage 9:    Bradley Wiggins    Thomas  Voeckler    Peter Sagan    Tejay Van Garderen  
  Arc-et-SenansBesançon | Dist: 41.50km. | Winner: Bradley Wiggins

Podium

Average speed for all riders in stage:  43,396 km./hr.

1
 Bradley Wiggins  Sky Procycling00h 51' 24"=48,444  km/h

2
 Chris Froome  Sky Procycling00h 51' 59"+  00:00:35 =47,900  km/h

3
 Fabian Cancellara  Radioshack–Nissan00h 52' 21"+  00:00:57 =47,564  km/h

4  Tejay Van Garderen  BMC00h 52' 30"+  00:01:06 =47,429  km/h

5  Sylvain Chavanel  Omega Pharma – Quick Step00h 52' 48"+  00:01:24 =47,159  km/h

6  Cadel Evans  BMC00h 53' 07"+  00:01:43 =46,878  km/h

7  Peter Velits  Omega Pharma – Quick Step00h 53' 23"+  00:01:59 =46,644  km/h

8  Vincenzo Nibali  Liquigas-Cannondale00h 53' 31"+  00:02:07 =46,528  km/h

9  Denis Menchov  Katusha00h 53' 32"+  00:02:08 =46,513  km/h

10  Andréas  Klöden  Radioshack–Nissan00h 53' 33"+  00:02:09 =46,499  km/h

11  Maxime Monfort  Radioshack–Nissan00h 53' 39"+  00:02:15 =46,412  km/h

12  Tony Martin  Omega Pharma – Quick Step00h 53' 40"+  00:02:16 =46,398  km/h

13  Haimar  Zubeldía  Radioshack–Nissan00h 53' 44"+  00:02:20 =46,340  km/h

14  Rui Costa  Movistar00h 53' 46"+  00:02:22 =46,311  km/h

15  Janez Brajkovič  Astana Pro Team00h 53' 50"+  00:02:26 =46,254  km/h

16  Jens Voigt  Radioshack–Nissan00h 54' 08"+  00:02:44 =45,998  km/h

17  Lieuwe Westra  Vacansoleil-DCM00h 54' 09"+  00:02:45 =45,983  km/h

18  Tony Gallopin  Radioshack–Nissan00h 54' 10"+  00:02:46 =45,969  km/h

19  Jérémy Roy  FDJ – Big Mat00h 54' 16"+  00:02:52 =45,885  km/h

20  Jérôme Coppel  Saur-Sojasun00h 54' 18"+  00:02:54 =45,856  km/h

21  Gustav-Erik Larsson  Vacansoleil-DCM00h 54' 19"+  00:02:55 =45,842  km/h

22  Andriy Grivko  Astana Pro Team00h 54' 22"+  00:02:58 =45,800  km/h

23  Nicolas Roche  AG2R La Mondiale00h 54' 32"+  00:03:08 =45,660  km/h

24  Luis León Sánchez  Rabobank00h 54' 32"+  00:03:08 =45,660  km/h

25  Sandy Casar  FDJ – Big Mat00h 54' 33"+  00:03:09 =45,646  km/h

26  Jurgen Van Den Broeck  Lotto-Belisol00h 54' 33"+  00:03:09 =45,646  km/h

27  Michael Rogers  Sky Procycling00h 54' 44"+  00:03:20 =45,493  km/h

28  Rein Taaramäe  Cofidis Le Credit En Ligne00h 54' 53"+  00:03:29 =45,369  km/h

29  Jean-Christophe Peraud  AG2R La Mondiale00h 55' 03"+  00:03:39 =45,232  km/h

30  Alexandre Vinokourov  Astana Pro Team00h 55' 11"+  00:03:47 =45,122  km/h

31  Philippe Gilbert  BMC00h 55' 11"+  00:03:47 =45,122  km/h

32  Levi Leipheimer  Omega Pharma – Quick Step00h 55' 12"+  00:03:48 =45,109  km/h

33  Christophe Riblon  AG2R La Mondiale00h 55' 21"+  00:03:57 =44,986  km/h

34  Alejandro Valverde  Movistar00h 55' 25"+  00:04:01 =44,932  km/h

35  Maxime Bouet  AG2R La Mondiale00h 55' 30"+  00:04:06 =44,865  km/h

36  David Millar  Garmin-Sharp-Barracuda00h 55' 38"+  00:04:14 =44,757  km/h

37  Gorka Izagirre  Euskaltel-Euskadi00h 55' 44"+  00:04:20 =44,677  km/h

38  Dominik Nerz  Liquigas-Cannondale00h 55' 44"+  00:04:20 =44,677  km/h

39  Stephen Cummings  BMC00h 55' 47"+  00:04:23 =44,637  km/h

40  Eduard Vorganov  Katusha00h 55' 49"+  00:04:25 =44,610  km/h

41  Chris Anker Sørensen  Saxo Bank-Tinkoff Bank00h 55' 50"+  00:04:26 =44,597  km/h

42  Laurens Ten Dam  Rabobank00h 55' 54"+  00:04:30 =44,544  km/h

43  Luca Paolini  Katusha00h 55' 55"+  00:04:31 =44,531  km/h

44  Fränk Schleck  Radioshack–Nissan00h 55' 56"+  00:04:32 =44,517  km/h

45  Pierrick  Fédrigo  FDJ – Big Mat00h 55' 58"+  00:04:34 =44,491  km/h

46  Patrick Gretsch  Argos–Shimano00h 55' 59"+  00:04:35 =44,478  km/h

47  Marco Marcato  Vacansoleil-DCM00h 56' 02"+  00:04:38 =44,438  km/h

48  Fredrik Kessiakoff  Astana Pro Team00h 56' 06"+  00:04:42 =44,385  km/h

49  Michael Schär  BMC00h 56' 08"+  00:04:44 =44,359  km/h

50  Vasil Kiryienka  Movistar00h 56' 08"+  00:04:44 =44,359  km/h

51  Dan Martin  Garmin-Sharp-Barracuda00h 56' 10"+  00:04:46 =44,332  km/h

52  Anthony Roux  FDJ – Big Mat00h 56' 11"+  00:04:47 =44,319  km/h

53  Michele Scarponi  Lampre-ISD00h 56' 14"+  00:04:50 =44,280  km/h

54  David Zabriskie  Garmin-Sharp-Barracuda00h 56' 14"+  00:04:50 =44,280  km/h

55  Lars Bak  Lotto-Belisol00h 56' 15"+  00:04:51 =44,267  km/h

56  Ivan Basso  Liquigas-Cannondale00h 56' 18"+  00:04:54 =44,227  km/h

57  Steven Kruijswijk  Rabobank00h 56' 28"+  00:05:04 =44,097  km/h

58  Sérgio Paulinho  Saxo Bank-Tinkoff Bank00h 56' 29"+  00:05:05 =44,084  km/h

59  Thibaut Pinot  FDJ – Big Mat00h 56' 36"+  00:05:12 =43,993  km/h

60  Egoi Martínez  Euskaltel-Euskadi00h 56' 37"+  00:05:13 =43,980  km/h

61  Robert Gesink  Rabobank00h 56' 39"+  00:05:15 =43,954  km/h

62  Cyril Gautier  Europcar00h 56' 40"+  00:05:16 =43,941  km/h

63  George Hincapie  BMC00h 56' 40"+  00:05:16 =43,941  km/h

64  Vladimir Gusev  Katusha00h 56' 40"+  00:05:16 =43,941  km/h

65  Rafael Valls Ferri  Vacansoleil-DCM00h 56' 45"+  00:05:21 =43,877  km/h

66  Thomas  Voeckler  Europcar00h 56' 46"+  00:05:22 =43,864  km/h

67  Christopher Horner  Radioshack–Nissan00h 56' 48"+  00:05:24 =43,838  km/h

68  Michael Mørkøv  Saxo Bank-Tinkoff Bank00h 56' 54"+  00:05:30 =43,761  km/h

69  Juan José Cobo  Movistar00h 56' 55"+  00:05:31 =43,748  km/h

70  Simon Gerrans  Orica-GreenEDGE00h 56' 55"+  00:05:31 =43,748  km/h

71  Marcus Burghardt  BMC00h 56' 57"+  00:05:33 =43,723  km/h

72  Danilo Hondo  Lampre-ISD00h 56' 58"+  00:05:34 =43,710  km/h

73  Pierre Rolland  Europcar00h 56' 58"+  00:05:34 =43,710  km/h

74  Dimitiri Fofonov  Astana Pro Team00h 57' 01"+  00:05:37 =43,671  km/h

75  Kristjan Koren  Liquigas-Cannondale00h 57' 04"+  00:05:40 =43,633  km/h

76  Vladimir Karpets  Movistar00h 57' 09"+  00:05:45 =43,570  km/h

77  Davide Malacarne  Europcar00h 57' 09"+  00:05:45 =43,570  km/h

78  Cyril Lemoine  Saur-Sojasun00h 57' 10"+  00:05:46 =43,557  km/h

79  Bert Grabsch  Omega Pharma – Quick Step00h 57' 10"+  00:05:46 =43,557  km/h

80  Michael Albasini  Orica-GreenEDGE00h 57' 10"+  00:05:46 =43,557  km/h

81  Jorge Azanza  Euskaltel-Euskadi00h 57' 12"+  00:05:48 =43,531  km/h

82  Yaroslav Popovych  Radioshack–Nissan00h 57' 13"+  00:05:49 =43,519  km/h

83  Arthur Vichot  FDJ – Big Mat00h 57' 13"+  00:05:49 =43,519  km/h

84  Jérôme Pineau  Omega Pharma – Quick Step00h 57' 14"+  00:05:50 =43,506  km/h

85  Andrey Kashechkin  Astana Pro Team00h 57' 18"+  00:05:54 =43,455  km/h

86  Christian Knees  Sky Procycling00h 57' 28"+  00:06:04 =43,329  km/h

87  Stuart O'Grady  Orica-GreenEDGE00h 57' 32"+  00:06:08 =43,279  km/h

88  Brice Feillu  Saur-Sojasun00h 57' 33"+  00:06:09 =43,267  km/h

89  Christian Vandevelde  Garmin-Sharp-Barracuda00h 57' 44"+  00:06:20 =43,129  km/h

90  Martin Velits  Omega Pharma – Quick Step00h 57' 46"+  00:06:22 =43,104  km/h

91  Sébastien Minard  AG2R La Mondiale00h 57' 51"+  00:06:27 =43,042  km/h

92  Edvald Boasson Hagen  Sky Procycling00h 57' 53"+  00:06:29 =43,018  km/h

93  Pieter Weening  Orica-GreenEDGE00h 57' 53"+  00:06:29 =43,018  km/h

94  Julien Simon  Saur-Sojasun00h 57' 55"+  00:06:31 =42,993  km/h

95  Richie Porte  Sky Procycling00h 57' 57"+  00:06:33 =42,968  km/h

96  Jürgen Roelandts  Lotto-Belisol00h 57' 58"+  00:06:34 =42,956  km/h

97  Jelle Vanendert  Lotto-Belisol00h 58' 00"+  00:06:36 =42,931  km/h

98  Brett Lancaster  Orica-GreenEDGE00h 58' 03"+  00:06:39 =42,894  km/h

99  David Moncoutié  Cofidis Le Credit En Ligne00h 58' 03"+  00:06:39 =42,894  km/h

100  Rob Ruijgh  Vacansoleil-DCM00h 58' 05"+  00:06:41 =42,869  km/h

101  Robert Kišerlovski  Astana Pro Team00h 58' 06"+  00:06:42 =42,857  km/h

102  Albert Timmer  Argos–Shimano00h 58' 06"+  00:06:42 =42,857  km/h

103  Fabrice Jeandesboz  Saur-Sojasun00h 58' 07"+  00:06:43 =42,845  km/h

104  Kevin De Weert  Omega Pharma – Quick Step00h 58' 10"+  00:06:46 =42,808  km/h

105  Peter Sagan  Liquigas-Cannondale00h 58' 10"+  00:06:46 =42,808  km/h

106  Rubén Plaza  Movistar00h 58' 12"+  00:06:48 =42,784  km/h

107  Dries Devenyns  Omega Pharma – Quick Step00h 58' 16"+  00:06:52 =42,735  km/h

108  Yury  Trofimov  Katusha00h 58' 18"+  00:06:54 =42,710  km/h

109  Matthieu Ladagnous  FDJ – Big Mat00h 58' 18"+  00:06:54 =42,710  km/h

110  Bram Tankink  Rabobank00h 58' 19"+  00:06:55 =42,698  km/h

111  Alessandro Petacchi  Lampre-ISD00h 58' 20"+  00:06:56 =42,686  km/h

112  Yuriy Krivtsov  Lampre-ISD00h 58' 23"+  00:06:59 =42,649  km/h

113  Yann Huguet  Argos–Shimano00h 58' 24"+  00:07:00 =42,637  km/h

114  Rémy Di Grégorio  Cofidis Le Credit En Ligne00h 58' 24"+  00:07:00 =42,637  km/h

115  Yohann Gène  Europcar00h 58' 26"+  00:07:02 =42,613  km/h

116  Sylwester Szmyd  Liquigas-Cannondale00h 58' 29"+  00:07:05 =42,576  km/h

117  Federico Canuti  Liquigas-Cannondale00h 58' 30"+  00:07:06 =42,564  km/h

118  Luis Angel Mate  Cofidis Le Credit En Ligne00h 58' 30"+  00:07:06 =42,564  km/h

119  Julien Fouchard  Cofidis Le Credit En Ligne00h 58' 31"+  00:07:07 =42,552  km/h

120  Bauke Mollema  Rabobank00h 58' 31"+  00:07:07 =42,552  km/h

121  Kris Boeckmans  Vacansoleil-DCM00h 58' 34"+  00:07:10 =42,516  km/h

122  Simone Stortoni  Lampre-ISD00h 58' 34"+  00:07:10 =42,516  km/h

123  Aliaksandr Kuchynski  Katusha00h 58' 36"+  00:07:12 =42,491  km/h

124  Daryl Impey  Orica-GreenEDGE00h 58' 38"+  00:07:14 =42,467  km/h

125  Yukiya  Arashiro  Europcar00h 58' 38"+  00:07:14 =42,467  km/h

126  Nicki Sørensen  Saxo Bank-Tinkoff Bank00h 58' 38"+  00:07:14 =42,467  km/h

127  Ruben Perez  Euskaltel-Euskadi00h 58' 38"+  00:07:14 =42,467  km/h

128  Amaël Moinard  BMC00h 58' 40"+  00:07:16 =42,443  km/h

129  Johnny Hoogerland  Vacansoleil-DCM00h 58' 41"+  00:07:17 =42,431  km/h

130  Matthieu Sprick  Argos–Shimano00h 58' 42"+  00:07:18 =42,419  km/h

131  Francis De Greef  Lotto-Belisol00h 58' 46"+  00:07:22 =42,371  km/h

132  Romain Zingle  Cofidis Le Credit En Ligne00h 58' 47"+  00:07:23 =42,359  km/h

133  Blel Kadri  AG2R La Mondiale00h 58' 50"+  00:07:26 =42,323  km/h

134  Matthew Goss  Orica-GreenEDGE00h 58' 51"+  00:07:27 =42,311  km/h

135  Sebastian Langeveld  Orica-GreenEDGE00h 58' 51"+  00:07:27 =42,311  km/h

136  Samuel Dumoulin  Cofidis Le Credit En Ligne00h 58' 51"+  00:07:27 =42,311  km/h

137  Gregory Henderson  Lotto-Belisol00h 59' 04"+  00:07:40 =42,156  km/h

138  Marco Marzano  Lampre-ISD00h 59' 10"+  00:07:46 =42,085  km/h

139  Adam Hansen  Lotto-Belisol00h 59' 17"+  00:07:53 =42,002  km/h

140  Giampaolo Caruso  Katusha00h 59' 20"+  00:07:56 =41,966  km/h

141  Alessandro Vanotti  Liquigas-Cannondale00h 59' 22"+  00:07:58 =41,943  km/h

142  Vincent Jérôme  Europcar00h 59' 22"+  00:07:58 =41,943  km/h

143  Joan Horrach  Katusha00h 59' 23"+  00:07:59 =41,931  km/h

144  Kenny van Hummel  Vacansoleil-DCM00h 59' 28"+  00:08:04 =41,872  km/h

145  Tom Veelers  Argos–Shimano00h 59' 30"+  00:08:06 =41,849  km/h

146  Pablo Urtasun  Euskaltel-Euskadi00h 59' 31"+  00:08:07 =41,837  km/h

147  Guillaume Levarlet  Saur-Sojasun00h 59' 31"+  00:08:07 =41,837  km/h

148  Baden Cooke  Orica-GreenEDGE00h 59' 35"+  00:08:11 =41,790  km/h

149  Jan Ghyselinck  Cofidis Le Credit En Ligne00h 59' 39"+  00:08:15 =41,744  km/h

150  Marcel Sieberg  Lotto-Belisol00h 59' 41"+  00:08:17 =41,720  km/h

151  Johan Vansummeren  Garmin-Sharp-Barracuda00h 59' 41"+  00:08:17 =41,720  km/h

152  Jonathan Cantwell  Saxo Bank-Tinkoff Bank00h 59' 42"+  00:08:18 =41,709  km/h

153  Bernhard Eisel  Sky Procycling00h 59' 49"+  00:08:25 =41,627  km/h

154  André Greipel  Lotto-Belisol00h 59' 50"+  00:08:26 =41,616  km/h

155  Koen De Kort  Argos–Shimano00h 59' 51"+  00:08:27 =41,604  km/h

156  Nicolas Edet  Cofidis Le Credit En Ligne00h 59' 54"+  00:08:30 =41,569  km/h

157  Mikaël Cherel  AG2R La Mondiale00h 59' 55"+  00:08:31 =41,558  km/h

158  Sébastien Hinault  AG2R La Mondiale00h 59' 57"+  00:08:33 =41,535  km/h

159  Borut Božič  Astana Pro Team01h 00' 00"+  00:08:36 =41,500  km/h

160  Cédric Pineau  FDJ – Big Mat01h 00' 02"+  00:08:38 =41,477  km/h

161  Mark Cavendish  Sky Procycling01h 00' 07"+  00:08:43 =41,419  km/h

162  Grega Bole  Lampre-ISD01h 00' 08"+  00:08:44 =41,408  km/h

163  Nick Nuyens  Saxo Bank-Tinkoff Bank01h 00' 14"+  00:08:50 =41,339  km/h

164  Roy Curvers  Argos–Shimano01h 00' 14"+  00:08:50 =41,339  km/h

165  Manuel Quinziato  BMC01h 00' 18"+  00:08:54 =41,294  km/h

166  Tyler Farrar  Garmin-Sharp-Barracuda01h 00' 19"+  00:08:55 =41,282  km/h

167  Matthew Lloyd  Lampre-ISD01h 00' 24"+  00:09:00 =41,225  km/h

168  Maxim Iglinskiy  Astana Pro Team01h 00' 25"+  00:09:01 =41,214  km/h

169  Mark Renshaw  Rabobank01h 00' 31"+  00:09:07 =41,146  km/h

170  Jean-Marc Marino  Saur-Sojasun01h 00' 31"+  00:09:07 =41,146  km/h

171  Giovanni Bernaudeau  Europcar01h 00' 32"+  00:09:08 =41,134  km/h

172  Daniel Oss  Liquigas-Cannondale01h 00' 32"+  00:09:08 =41,134  km/h

173  Juan José Haedo  Saxo Bank-Tinkoff Bank01h 00' 39"+  00:09:15 =41,055  km/h

174  Christophe Kern  Europcar01h 00' 46"+  00:09:22 =40,976  km/h

175  Karsten Kroon  Saxo Bank-Tinkoff Bank01h 00' 49"+  00:09:25 =40,943  km/h

176  Anders Lund  Saxo Bank-Tinkoff Bank01h 00' 56"+  00:09:32 =40,864  km/h

177  Yauheni Hutarovich  FDJ – Big Mat01h 01' 21"+  00:09:57 =40,587  km/h

178  Jimmy Engoulvent  Saur-Sojasun01h 02' 34"+  00:11:10 =39,798  km/h


Todays birthdays.

1884 • Vincenzo Borgarello
1889 • Emile Bonnefoi
1889 • Auguste Denizot
1890 • Maurice Petit
1904 • Pierino Ferioli
1905 • Vincent Carrara
1910 • Antoon Van Schendel
1925 • Georges Meunier
1945 • Gérard Besnard
1950 • Wim Kelleners
1960 • Ivan Ivanov
1960 • Pierre-Henri Menthéour
1962 • Giovanni Bottoia
1964 • Flavio Giupponi
1974 • Benoit Salmon
1977 • Iñigo Landaluze
1977 • Svein Tuft
1979 • Rubens Bertogliati
1985 • Matthew Busche

 

Optimized for Chrome - Edge
and Opera browsers.